Location: Praha
(50.0830°N, 14.4670°E)
Time: 11:35:07
(UTC+02:00)

ISS - Pass Details

Date: 04 May 2025
Orbit: 416 x 419 km, 51.6° (Epoch: 18 May)

Event Time Altitude Azimuth Distance (km) Brightness Sun altitude
Exits shadow 01:28:36 15° 78° (ENE) 1,225 -1.2 -23.6°
Drops below altitude 10° 01:29:17 10° 76° (ENE) 1,496 -0.7 -23.6°
Sets 01:31:24 0° 73° (ENE) 2,362 0.4 -23.6°
